Year,Month,Day,Hour,Minute,Value (Times are PST for temperature in C)
2012,08,22,10,26,18.50
2012,08,22,10,27,18.50
2012,08,22,10,28,18.50
2012,08,22,10,29,18.60
2012,08,22,10,30,18.60
2012,08,22,10,31,18.60
2012,08,22,10,32,18.70
2012,08,22,10,33,18.80
2012,08,22,10,34,18.80
2012,08,22,10,35,18.80
2012,08,22,10,36,18.80
2012,08,22,10,37,18.80
2012,08,22,10,38,18.80
2012,08,22,10,39,18.90
2012,08,22,10,40,18.90
2012,08,22,10,41,18.90
2012,08,22,10,42,18.80
2012,08,22,10,43,18.80
2012,08,22,10,44,18.90
2012,08,22,10,45,18.90
2012,08,22,10,46,18.90
2012,08,22,10,47,18.90
2012,08,22,10,48,18.90
2012,08,22,10,49,18.90
2012,08,22,10,50,18.90
2012,08,22,10,51,18.90
2012,08,22,10,52,18.80
2012,08,22,10,53,18.90
2012,08,22,10,54,18.90
2012,08,22,10,55,18.80
2012,08,22,10,56,18.80
2012,08,22,10,57,18.80
2012,08,22,10,58,18.70
2012,08,22,10,59,18.70
2012,08,22,11,00,18.70
2012,08,22,11,01,18.70
2012,08,22,11,02,18.70
2012,08,22,11,03,18.80
2012,08,22,11,04,18.80
2012,08,22,11,05,18.80
2012,08,22,11,06,18.70
2012,08,22,11,07,18.80
2012,08,22,11,08,18.80
2012,08,22,11,09,18.80
2012,08,22,11,10,18.80
2012,08,22,11,11,18.80
2012,08,22,11,12,18.90
2012,08,22,11,13,18.90
2012,08,22,11,14,18.90
2012,08,22,11,15,18.90
2012,08,22,11,16,18.90
2012,08,22,11,17,19.00
2012,08,22,11,18,19.10
2012,08,22,11,19,19.10
2012,08,22,11,20,19.10
2012,08,22,11,21,19.10
2012,08,22,11,22,18.90
2012,08,22,11,23,18.90
2012,08,22,11,24,18.90
2012,08,22,11,25,19.00
2012,08,22,11,26,18.90
2012,08,22,11,27,18.90
2012,08,22,11,28,18.90
2012,08,22,11,29,19.00
2012,08,22,11,30,19.10
2012,08,22,11,31,19.20
2012,08,22,11,32,19.30
2012,08,22,11,33,19.40
2012,08,22,11,34,19.40
2012,08,22,11,35,19.40
2012,08,22,11,36,19.50
2012,08,22,11,37,19.50
2012,08,22,11,38,19.60
2012,08,22,11,39,19.70
2012,08,22,11,40,19.80
2012,08,22,11,41,19.80
2012,08,22,11,42,19.80
2012,08,22,11,43,19.80
2012,08,22,11,44,19.70
2012,08,22,11,45,19.70
2012,08,22,11,46,19.70
2012,08,22,11,47,19.80
2012,08,22,11,48,19.80
2012,08,22,11,49,19.90
2012,08,22,11,50,19.90
2012,08,22,11,51,19.90
2012,08,22,11,52,19.90
2012,08,22,11,53,19.90
2012,08,22,11,54,19.90
2012,08,22,11,55,19.90
2012,08,22,11,56,19.90
2012,08,22,11,57,20.00
2012,08,22,11,58,20.10
2012,08,22,11,59,20.10
2012,08,22,12,00,20.20
2012,08,22,12,01,20.20
2012,08,22,12,02,20.20
2012,08,22,12,03,20.20
2012,08,22,12,04,20.10
2012,08,22,12,05,20.20
2012,08,22,12,06,20.20
2012,08,22,12,07,20.30
2012,08,22,12,08,20.40
2012,08,22,12,09,20.50
2012,08,22,12,10,20.50
2012,08,22,12,11,20.50
2012,08,22,12,12,20.60
2012,08,22,12,13,20.60
2012,08,22,12,14,20.70
2012,08,22,12,15,20.70
2012,08,22,12,16,20.70
2012,08,22,12,17,20.50
2012,08,22,12,18,20.40
2012,08,22,12,19,20.30
2012,08,22,12,20,20.40
2012,08,22,12,21,20.30
2012,08,22,12,22,20.20
2012,08,22,12,23,20.20
2012,08,22,12,24,20.20
2012,08,22,12,25,20.20
2012,08,22,12,26,20.20
2012,08,22,12,27,20.20
2012,08,22,12,28,20.10
2012,08,22,12,29,20.00
2012,08,22,12,30,19.90
2012,08,22,12,31,19.90
2012,08,22,12,32,19.80
2012,08,22,12,33,19.80
2012,08,22,12,34,19.90
2012,08,22,12,35,19.90
2012,08,22,12,36,19.90
2012,08,22,12,37,19.90
2012,08,22,12,38,19.80
2012,08,22,12,39,19.60
2012,08,22,12,40,19.50
2012,08,22,12,41,19.50
2012,08,22,12,42,19.40
2012,08,22,12,43,19.40
2012,08,22,12,44,19.40
2012,08,22,12,45,19.40
2012,08,22,12,46,19.40
2012,08,22,12,47,19.40
2012,08,22,12,48,19.40
2012,08,22,12,49,19.50
2012,08,22,12,50,19.60
2012,08,22,12,51,19.60
2012,08,22,12,52,19.60
2012,08,22,12,53,19.60
2012,08,22,12,54,19.80
2012,08,22,12,55,19.90
2012,08,22,12,56,19.90
2012,08,22,12,57,19.90
2012,08,22,12,58,20.10
2012,08,22,12,59,20.10
2012,08,22,13,00,20.20
2012,08,22,13,01,20.40
2012,08,22,13,02,20.50
2012,08,22,13,03,20.40
2012,08,22,13,04,20.30
2012,08,22,13,05,20.30
2012,08,22,13,06,20.30
2012,08,22,13,07,20.30
2012,08,22,13,08,20.30
2012,08,22,13,09,20.30
2012,08,22,13,10,20.40
2012,08,22,13,11,20.50
2012,08,22,13,12,20.60
2012,08,22,13,13,20.50
2012,08,22,13,14,20.40
2012,08,22,13,15,20.30
2012,08,22,13,16,20.20
2012,08,22,13,17,20.40
2012,08,22,13,18,20.40
2012,08,22,13,19,20.40
2012,08,22,13,20,20.40
2012,08,22,13,21,20.40
2012,08,22,13,22,20.30
2012,08,22,13,23,20.40
2012,08,22,13,24,20.40
2012,08,22,13,25,20.40
2012,08,22,13,26,20.20
2012,08,22,13,27,20.00
2012,08,22,13,28,19.90
2012,08,22,13,29,20.00
2012,08,22,13,30,20.10
2012,08,22,13,31,20.10
2012,08,22,13,32,20.10
2012,08,22,13,33,20.10
2012,08,22,13,34,20.10
2012,08,22,13,35,20.20
2012,08,22,13,36,20.20
2012,08,22,13,37,20.20
2012,08,22,13,38,20.20
2012,08,22,13,39,20.40
2012,08,22,13,40,20.50
2012,08,22,13,41,20.50
2012,08,22,13,42,20.40
2012,08,22,13,43,20.40
2012,08,22,13,44,20.40
2012,08,22,13,45,20.30
2012,08,22,13,46,20.30
2012,08,22,13,47,20.20
2012,08,22,13,48,20.20
2012,08,22,13,49,20.20
2012,08,22,13,50,20.30
2012,08,22,13,51,20.30
2012,08,22,13,52,20.40
2012,08,22,13,53,20.40
2012,08,22,13,54,20.40
2012,08,22,13,55,20.50
2012,08,22,13,56,20.60
2012,08,22,13,57,20.70
2012,08,22,13,58,20.90
2012,08,22,13,59,21.10
2012,08,22,14,00,21.30
2012,08,22,14,01,21.40
2012,08,22,14,02,21.50
2012,08,22,14,03,21.60
2012,08,22,14,04,21.60
2012,08,22,14,05,21.60
2012,08,22,14,06,21.80
2012,08,22,14,07,21.90
2012,08,22,14,08,22.00
2012,08,22,14,09,22.00
2012,08,22,14,10,22.00
2012,08,22,14,11,21.90
2012,08,22,14,12,21.90
2012,08,22,14,13,22.00
2012,08,22,14,14,22.00
2012,08,22,14,15,22.00
2012,08,22,14,16,22.00
2012,08,22,14,17,22.10
2012,08,22,14,18,22.10
2012,08,22,14,19,22.10
2012,08,22,14,20,22.20
2012,08,22,14,21,22.20
2012,08,22,14,22,22.10
2012,08,22,14,23,22.10
2012,08,22,14,24,22.10
2012,08,22,14,25,22.20
2012,08,22,14,26,22.20
2012,08,22,14,27,22.10
2012,08,22,14,28,22.10
2012,08,22,14,29,22.00
2012,08,22,14,30,21.90
2012,08,22,14,31,21.90
2012,08,22,14,32,21.90
2012,08,22,14,33,22.00
2012,08,22,14,34,22.10
2012,08,22,14,35,22.00
2012,08,22,14,36,22.00
2012,08,22,14,37,22.00
2012,08,22,14,38,22.00
2012,08,22,14,39,22.00
2012,08,22,14,40,21.90
2012,08,22,14,41,21.80
2012,08,22,14,42,21.70
2012,08,22,14,43,21.80
2012,08,22,14,44,21.80
2012,08,22,14,45,21.80
2012,08,22,14,46,21.80
2012,08,22,14,47,21.80
2012,08,22,14,48,21.80
2012,08,22,14,49,22.00
2012,08,22,14,50,22.10
2012,08,22,14,51,22.20
2012,08,22,14,52,22.30
2012,08,22,14,53,22.30
2012,08,22,14,54,22.10
2012,08,22,14,55,22.00
2012,08,22,14,56,22.10
2012,08,22,14,57,22.10
2012,08,22,14,58,22.10
2012,08,22,14,59,22.00
2012,08,22,15,00,21.90
2012,08,22,15,01,22.00
2012,08,22,15,02,22.10
2012,08,22,15,03,22.10
2012,08,22,15,04,22.20
2012,08,22,15,05,22.10
2012,08,22,15,06,22.00
2012,08,22,15,07,22.00
2012,08,22,15,08,22.10
2012,08,22,15,09,22.10
2012,08,22,15,10,22.10
2012,08,22,15,11,22.10
2012,08,22,15,12,22.10
2012,08,22,15,13,22.00
2012,08,22,15,14,21.90
2012,08,22,15,15,21.90
2012,08,22,15,16,21.80
2012,08,22,15,17,21.80
2012,08,22,15,18,21.80
2012,08,22,15,19,21.80
2012,08,22,15,20,21.80
2012,08,22,15,21,21.90
2012,08,22,15,22,21.90
2012,08,22,15,23,21.80
2012,08,22,15,24,21.90
2012,08,22,15,25,22.00
2012,08,22,15,26,21.90
2012,08,22,15,27,21.90
2012,08,22,15,28,22.00
2012,08,22,15,29,22.00
2012,08,22,15,30,22.00
2012,08,22,15,31,22.10
2012,08,22,15,32,22.00
2012,08,22,15,33,22.00
2012,08,22,15,34,22.00
2012,08,22,15,35,21.90
2012,08,22,15,36,21.90
2012,08,22,15,37,21.80
2012,08,22,15,38,21.70
2012,08,22,15,39,21.60
2012,08,22,15,40,21.70
2012,08,22,15,41,21.70
2012,08,22,15,42,21.80
2012,08,22,15,43,21.90
2012,08,22,15,44,21.90
2012,08,22,15,45,21.90
2012,08,22,15,46,22.00
2012,08,22,15,47,22.10
2012,08,22,15,48,22.40
2012,08,22,15,49,22.60
2012,08,22,15,50,22.60
2012,08,22,15,51,22.60
2012,08,22,15,52,22.60
2012,08,22,15,53,22.80
2012,08,22,15,54,22.90
2012,08,22,15,55,22.90
2012,08,22,15,56,22.80
2012,08,22,15,57,22.60
2012,08,22,15,58,22.60
2012,08,22,15,59,22.50
2012,08,22,16,00,22.40
2012,08,22,16,01,22.30
2012,08,22,16,02,22.30
2012,08,22,16,03,22.30
2012,08,22,16,04,22.40
2012,08,22,16,05,22.40
2012,08,22,16,06,22.50
2012,08,22,16,07,22.40
2012,08,22,16,08,22.30
2012,08,22,16,09,22.10
2012,08,22,16,10,22.00
2012,08,22,16,11,22.10
2012,08,22,16,12,22.10
2012,08,22,16,13,22.10
2012,08,22,16,14,22.00
2012,08,22,16,15,22.00
2012,08,22,16,16,21.90
2012,08,22,16,17,21.80
2012,08,22,16,18,21.70
2012,08,22,16,19,21.80
2012,08,22,16,20,21.80
2012,08,22,16,21,21.90
2012,08,22,16,22,22.00
2012,08,22,16,23,22.20
2012,08,22,16,24,22.20
2012,08,22,16,25,22.30
2012,08,22,16,26,22.30
2012,08,22,16,27,22.40
2012,08,22,16,28,22.40
2012,08,22,16,29,22.30
2012,08,22,16,30,22.10
2012,08,22,16,31,22.00
2012,08,22,16,32,22.00
2012,08,22,16,33,21.90
2012,08,22,16,34,21.90
2012,08,22,16,35,22.00
2012,08,22,16,36,22.00
2012,08,22,16,37,21.90
2012,08,22,16,38,21.90
2012,08,22,16,39,21.80
2012,08,22,16,40,21.80
2012,08,22,16,41,21.80
2012,08,22,16,42,21.80
2012,08,22,16,43,21.80
2012,08,22,16,44,21.90
2012,08,22,16,45,21.90
2012,08,22,16,46,21.80
2012,08,22,16,47,21.70
2012,08,22,16,48,21.70
2012,08,22,16,49,21.70
2012,08,22,16,50,21.80
2012,08,22,16,51,21.80
2012,08,22,16,52,21.90
2012,08,22,16,53,21.90
2012,08,22,16,54,21.90
2012,08,22,16,55,21.90
2012,08,22,16,56,21.90
2012,08,22,16,57,21.80
2012,08,22,16,58,21.90
2012,08,22,16,59,21.90
2012,08,22,17,00,22.00
2012,08,22,17,01,22.00
2012,08,22,17,02,21.90
2012,08,22,17,03,21.90
2012,08,22,17,04,21.90
2012,08,22,17,05,21.90
2012,08,22,17,06,21.90
2012,08,22,17,07,22.00
2012,08,22,17,08,22.00
2012,08,22,17,09,22.00
2012,08,22,17,10,21.90
2012,08,22,17,11,21.90
2012,08,22,17,12,21.90
2012,08,22,17,13,22.00
2012,08,22,17,14,22.00
2012,08,22,17,15,22.10
2012,08,22,17,16,22.00
2012,08,22,17,17,22.00
2012,08,22,17,18,21.90
2012,08,22,17,19,21.80
2012,08,22,17,20,21.80
2012,08,22,17,21,21.90
2012,08,22,17,22,21.90
2012,08,22,17,23,21.90
2012,08,22,17,24,21.90
2012,08,22,17,25,22.00
2012,08,22,17,26,22.00
2012,08,22,17,27,21.90
2012,08,22,17,28,21.80
2012,08,22,17,29,21.70
2012,08,22,17,30,21.70
2012,08,22,17,31,21.70
2012,08,22,17,32,21.60
2012,08,22,17,33,21.60
2012,08,22,17,34,21.60
2012,08,22,17,35,21.60
2012,08,22,17,36,21.60
2012,08,22,17,37,21.60
2012,08,22,17,38,21.60
2012,08,22,17,39,21.70
2012,08,22,17,40,21.60
2012,08,22,17,41,21.60
2012,08,22,17,42,21.60
2012,08,22,17,43,21.60
2012,08,22,17,44,21.60
2012,08,22,17,45,21.60
2012,08,22,17,46,21.50
2012,08,22,17,47,21.60
2012,08,22,17,48,21.60
2012,08,22,17,49,21.60
2012,08,22,17,50,21.60
2012,08,22,17,51,21.60
2012,08,22,17,52,21.50
2012,08,22,17,53,21.40
2012,08,22,17,54,21.40
2012,08,22,17,55,21.30
2012,08,22,17,56,21.30
2012,08,22,17,57,21.30
2012,08,22,17,58,21.30
2012,08,22,17,59,21.30
2012,08,22,18,00,21.30
2012,08,22,18,01,21.20
2012,08,22,18,02,21.10
2012,08,22,18,03,21.00
2012,08,22,18,04,20.90
2012,08,22,18,05,20.80
2012,08,22,18,06,20.80
2012,08,22,18,07,20.80
2012,08,22,18,08,20.70
2012,08,22,18,09,20.70
2012,08,22,18,10,20.60
2012,08,22,18,11,20.60
2012,08,22,18,12,20.60
2012,08,22,18,13,20.60
2012,08,22,18,14,20.60
2012,08,22,18,15,20.60
2012,08,22,18,16,20.60
2012,08,22,18,17,20.60
2012,08,22,18,18,20.50
2012,08,22,18,19,20.60
2012,08,22,18,20,20.50
2012,08,22,18,21,20.50
2012,08,22,18,22,20.50
2012,08,22,18,23,20.50
2012,08,22,18,24,20.50
2012,08,22,18,25,20.40
2012,08,22,18,26,20.40
2012,08,22,18,27,20.30
2012,08,22,18,28,20.30
2012,08,22,18,29,20.30
2012,08,22,18,30,20.30
2012,08,22,18,31,20.40
2012,08,22,18,32,20.40
2012,08,22,18,33,20.40
2012,08,22,18,34,20.40
2012,08,22,18,35,20.40
2012,08,22,18,36,20.30
2012,08,22,18,37,20.30
2012,08,22,18,38,20.20
2012,08,22,18,39,20.20
2012,08,22,18,40,20.20
2012,08,22,18,41,20.10
2012,08,22,18,42,20.00
2012,08,22,18,43,19.90
2012,08,22,18,44,19.90
2012,08,22,18,45,19.90
2012,08,22,18,46,19.90
2012,08,22,18,47,19.90
2012,08,22,18,48,19.90
2012,08,22,18,49,19.90
2012,08,22,18,50,19.80
2012,08,22,18,51,19.80
2012,08,22,18,52,19.80
2012,08,22,18,53,19.70
2012,08,22,18,54,19.70
2012,08,22,18,55,19.70
2012,08,22,18,56,19.70
2012,08,22,18,57,19.60
2012,08,22,18,58,19.60
2012,08,22,18,59,19.60
2012,08,22,19,00,19.50
2012,08,22,19,01,19.50
2012,08,22,19,02,19.50
2012,08,22,19,03,19.50
2012,08,22,19,04,19.40
2012,08,22,19,05,19.40
2012,08,22,19,06,19.40
2012,08,22,19,07,19.30
2012,08,22,19,08,19.30
2012,08,22,19,09,19.30
2012,08,22,19,10,19.30
2012,08,22,19,11,19.30
2012,08,22,19,12,19.30
2012,08,22,19,13,19.20
2012,08,22,19,14,19.20
2012,08,22,19,15,19.20
2012,08,22,19,16,19.20
2012,08,22,19,17,19.20
2012,08,22,19,18,19.20
2012,08,22,19,19,19.20
2012,08,22,19,20,19.20
2012,08,22,19,21,19.20
2012,08,22,19,22,19.20
